| time (UTC) | temp C | wind direction | speed KPH | gust KPH | rain 1hr cm | rain 24hr cm | rain mn cm | humidity % | barometer mb |
| 20260506103923 | 24 | 125 | 0.0 | 4.8 | 0.00 | 0.00 | 0.00 | 83 | 1009.7 |
| 20260506103424 | 24 | 125 | 1.6 | 4.8 | 0.00 | 0.00 | 0.00 | 83 | 1009.6 |
| 20260506102924 | 24 | 131 | 0.0 | 0.0 | 0.00 | 0.00 | 0.00 | 83 | 1009.5 |
| 20260506102424 | 24 | 131 | 0.0 | 4.8 | 0.00 | 0.00 | 0.00 | 83 | 1009.6 |
| 20260506101922 | 24 | 131 | 0.0 | 4.8 | 0.00 | 0.00 | 0.00 | 83 | 1009.6 |
| 20260506101426 | 24 | 137 | 3.2 | 4.8 | 0.00 | 0.00 | 0.00 | 83 | 1009.5 |
| 20260506101422 | 24 | 140 | 1.6 | 4.8 | 0.00 | 0.00 | 0.00 | 83 | 1009.4 |
| 20260506100424 | 24 | 134 | 0.0 | 11.3 | 0.00 | 0.00 | 0.00 | 83 | 1009.4 |
| 20260506095923 | 24 | 134 | 0.0 | 11.3 | 0.00 | 0.00 | 0.00 | 83 | 1009.3 |
| 20260506095424 | 24 | 142 | 0.0 | 6.4 | 0.00 | 0.00 | 0.00 | 82 | 1009.2 |
| 20260506094922 | 24 | 125 | 3.2 | 8.0 | 0.00 | 0.00 | 0.00 | 82 | 1009.2 |
| 20260506094422 | 24 | 154 | 1.6 | 8.0 | 0.00 | 0.00 | 0.00 | 82 | 1009.0 |
| 20260506093924 | 24 | 148 | 3.2 | 6.4 | 0.00 | 0.00 | 0.00 | 82 | 1009.0 |
| 20260506093423 | 24 | 145 | 1.6 | 4.8 | 0.00 | 0.00 | 0.00 | 82 | 1009.0 |
| 20260506092922 | 24 | 140 | 1.6 | 8.0 | 0.00 | 0.00 | 0.00 | 82 | 1008.9 |
| 20260506092422 | 24 | 147 | 4.8 | 8.0 | 0.00 | 0.00 | 0.00 | 82 | 1008.8 |
| 20260506091923 | 24 | 138 | 3.2 | 8.0 | 0.00 | 0.00 | 0.00 | 82 | 1008.8 |
| 20260506091422 | 24 | 142 | 3.2 | 6.4 | 0.00 | 0.00 | 0.00 | 82 | 1008.8 |
| 20260506090921 | 24 | 140 | 3.2 | 11.3 | 0.00 | 0.00 | 0.00 | 82 | 1008.7 |
| 20260506090421 | 24 | 120 | 6.4 | 11.3 | 0.00 | 0.00 | 0.00 | 82 | 1008.5 |
| 20260506085923 | 24 | 152 | 4.8 | 6.4 | 0.00 | 0.00 | 0.00 | 82 | 1008.5 |
| 20260506085425 | 24 | 158 | 3.2 | 8.0 | 0.00 | 0.00 | 0.00 | 83 | 1008.6 |
| 20260506085421 | 24 | 159 | 3.2 | 6.4 | 0.00 | 0.00 | 0.00 | 83 | 1008.7 |
| 20260506084422 | 24 | 141 | 4.8 | 8.0 | 0.00 | 0.00 | 0.00 | 83 | 1008.7 |
| 20260506083921 | 24 | 137 | 4.8 | 9.7 | 0.00 | 0.00 | 0.00 | 83 | 1008.7 |
| 20260506083420 | 24 | 140 | 4.8 | 14.5 | 0.00 | 0.00 | 0.00 | 83 | 1008.7 |
| 20260506082922 | 24 | 118 | 4.8 | 14.5 | 0.00 | 0.00 | 0.00 | 83 | 1008.7 |
| 20260506082421 | 24 | 164 | 6.4 | 14.5 | 0.00 | 0.00 | 0.00 | 83 | 1008.7 |
| 20260506081921 | 24 | 142 | 3.2 | 14.5 | 0.00 | 0.00 | 0.00 | 83 | 1008.7 |
| 20260506081420 | 24 | 154 | 6.4 | 8.0 | 0.00 | 0.00 | 0.00 | 83 | 1008.6 |
| 20260506080922 | 24 | 137 | 3.2 | 9.7 | 0.00 | 0.00 | 0.00 | 83 | 1008.7 |
| 20260506080421 | 24 | 140 | 4.8 | 9.7 | 0.00 | 0.00 | 0.00 | 83 | 1008.7 |
| 20260506073420 | 24 | 141 | 4.8 | 11.3 | 0.00 | 0.00 | 0.00 | 83 | 1009.1 |
| 20260506072925 | 24 | 137 | 4.8 | 9.7 | 0.00 | 0.00 | 0.00 | 84 | 1009.1 |
| 20260506072921 | 24 | 159 | 3.2 | 9.7 | 0.00 | 0.00 | 0.00 | 83 | 1009.0 |
| 20260506071919 | 24 | 148 | 4.8 | 8.0 | 0.00 | 0.00 | 0.00 | 84 | 1009.3 |
| 20260506071421 | 24 | 127 | 3.2 | 9.7 | 0.00 | 0.00 | 0.00 | 84 | 1009.2 |
| 20260506070920 | 24 | 147 | 6.4 | 11.3 | 0.00 | 0.00 | 0.00 | 84 | 1009.1 |
| 20260506070423 | 24 | 159 | 4.8 | 14.5 | 0.00 | 0.00 | 0.00 | 84 | 1009.3 |
| 20260506070419 | 24 | 148 | 6.4 | 11.3 | 0.00 | 0.00 | 0.00 | 84 | 1009.2 |
| 20260506061919 | 24 | 137 | 6.4 | 16.1 | 0.00 | 0.00 | 0.00 | 83 | 1009.3 |
| 20260506061418 | 24 | 147 | 3.2 | 16.1 | 0.00 | 0.00 | 0.00 | 83 | 1009.2 |
| 20260506060920 | 24 | 137 | 3.2 | 8.0 | 0.00 | 0.00 | 0.00 | 83 | 1009.2 |
| 20260506060419 | 24 | 145 | 4.8 | 9.7 | 0.00 | 0.00 | 0.00 | 83 | 1009.3 |
| 20260506051416 | 25 | 161 | 3.2 | 14.5 | 0.00 | 0.00 | 0.00 | 84 | 1009.2 |
| 20260506050923 | 25 | 140 | 4.8 | 14.5 | 0.00 | 0.00 | 0.00 | 84 | 1009.4 |
| 20260506050919 | 25 | 152 | 4.8 | 9.7 | 0.00 | 0.00 | 0.00 | 84 | 1009.3 |
| 20260506044917 | 25 | 151 | 4.8 | 9.7 | 0.00 | 0.00 | 0.00 | 84 | 1009.3 |
| 20260506044418 | 25 | 142 | 6.4 | 14.5 | 0.00 | 0.00 | 0.00 | 84 | 1009.3 |
| 20260506043917 | 25 | 137 | 4.8 | 14.5 | 0.00 | 0.00 | 0.00 | 84 | 1009.3 |
| 20260506043416 | 25 | 137 | 4.8 | 11.3 | 0.00 | 0.00 | 0.00 | 84 | 1009.3 |
| 20260506042915 | 25 | 124 | 4.8 | 11.3 | 0.00 | 0.00 | 0.00 | 84 | 1009.3 |
| 20260506042416 | 25 | 138 | 4.8 | 8.0 | 0.00 | 0.00 | 0.00 | 84 | 1009.3 |
| 20260506041917 | 25 | 137 | 4.8 | 9.7 | 0.00 | 0.00 | 0.00 | 84 | 1009.1 |
| 20260506041417 | 25 | 133 | 6.4 | 14.5 | 0.00 | 0.00 | 0.00 | 84 | 1009.1 |
| 20260506040922 | 25 | 154 | 4.8 | 14.5 | 0.00 | 0.00 | 0.00 | 84 | 1009.0 |
| 20260506040916 | 25 | 140 | 6.4 | 14.5 | 0.00 | 0.00 | 0.00 | 84 | 1009.0 |
| 20260506035915 | 25 | 131 | 6.4 | 11.3 | 0.00 | 0.00 | 0.00 | 84 | 1008.9 |
| 20260506035417 | 25 | 127 | 3.2 | 9.7 | 0.00 | 0.00 | 0.00 | 84 | 1008.9 |
| 20260506034917 | 25 | 137 | 4.8 | 9.7 | 0.00 | 0.00 | 0.00 | 84 | 1008.8 |
| 20260506034415 | 25 | 83 | 4.8 | 11.3 | 0.00 | 0.00 | 0.00 | 84 | 1008.8 |
| 20260506033916 | 25 | 151 | 6.4 | 11.3 | 0.00 | 0.00 | 0.00 | 84 | 1008.8 |
| 20260506033416 | 25 | 147 | 8.0 | 11.3 | 0.00 | 0.00 | 0.00 | 84 | 1008.8 |
| 20260506032916 | 25 | 164 | 6.4 | 11.3 | 0.00 | 0.00 | 0.00 | 84 | 1008.6 |
| 20260506032415 | 25 | 140 | 4.8 | 9.7 | 0.00 | 0.00 | 0.00 | 84 | 1008.6 |
| 20260506031916 | 25 | 155 | 4.8 | 9.7 | 0.00 | 0.00 | 0.00 | 83 | 1008.6 |
| 20260506031414 | 25 | 152 | 4.8 | 9.7 | 0.00 | 0.00 | 0.00 | 83 | 1008.5 |
| 20260506030914 | 25 | 127 | 3.2 | 11.3 | 0.00 | 0.00 | 0.00 | 83 | 1008.4 |
| 20260506030415 | 26 | 148 | 3.2 | 11.3 | 0.00 | 0.00 | 0.00 | 83 | 1008.3 |
| 20260506025914 | 26 | 159 | 6.4 | 14.5 | 0.00 | 0.00 | 0.00 | 83 | 1008.2 |
| 20260506025415 | 26 | 118 | 8.0 | 14.5 | 0.00 | 0.00 | 0.00 | 83 | 1008.2 |
| 20260506024914 | 26 | 135 | 6.4 | 11.3 | 0.00 | 0.00 | 0.00 | 82 | 1008.1 |
| 20260506024415 | 26 | 123 | 6.4 | 9.7 | 0.00 | 0.00 | 0.00 | 82 | 1008.0 |
| 20260506023914 | 26 | 142 | 4.8 | 11.3 | 0.00 | 0.00 | 0.00 | 82 | 1007.9 |
| 20260506023414 | 26 | 142 | 4.8 | 14.5 | 0.00 | 0.00 | 0.00 | 81 | 1007.8 |
| 20260506022915 | 26 | 134 | 6.4 | 14.5 | 0.00 | 0.00 | 0.00 | 80 | 1007.8 |
| 20260506022415 | 26 | 127 | 4.8 | 11.3 | 0.00 | 0.00 | 0.00 | 80 | 1007.6 |
| 20260506021913 | 26 | 141 | 4.8 | 11.3 | 0.00 | 0.00 | 0.00 | 80 | 1007.5 |
| 20260506021415 | 26 | 134 | 3.2 | 8.0 | 0.00 | 0.00 | 0.00 | 79 | 1007.3 |
| 20260506020918 | 26 | 111 | 4.8 | 6.4 | 0.00 | 0.00 | 0.00 | 79 | 1007.2 |
| 20260506020912 | 26 | 148 | 3.2 | 8.0 | 0.00 | 0.00 | 0.00 | 79 | 1007.2 |
| 20260506015913 | 27 | 117 | 3.2 | 8.0 | 0.00 | 0.00 | 0.00 | 79 | 1007.2 |
| 20260506015413 | 27 | 138 | 4.8 | 8.0 | 0.00 | 0.00 | 0.00 | 78 | 1007.1 |
| 20260506014914 | 27 | 147 | 3.2 | 6.4 | 0.00 | 0.00 | 0.00 | 78 | 1007.1 |
| 20260506014413 | 27 | 130 | 3.2 | 8.0 | 0.00 | 0.00 | 0.00 | 78 | 1007.0 |
| 20260506013912 | 27 | 120 | 3.2 | 8.0 | 0.00 | 0.00 | 0.00 | 77 | 1007.1 |
| 20260506013417 | 27 | 110 | 4.8 | 8.0 | 0.00 | 0.00 | 0.00 | 77 | 1007.0 |
| 20260506013412 | 27 | 117 | 3.2 | 8.0 | 0.00 | 0.00 | 0.00 | 77 | 1007.1 |
| 20260506012415 | 27 | 118 | 3.2 | 6.4 | 0.00 | 0.00 | 0.00 | 77 | 1007.0 |
| 20260506011912 | 27 | 134 | 3.2 | 6.4 | 0.00 | 0.00 | 0.00 | 76 | 1007.0 |
| 20260506011413 | 27 | 121 | 3.2 | 6.4 | 0.00 | 0.00 | 0.00 | 76 | 1007.0 |
| 20260506010916 | 27 | 130 | 1.6 | 3.2 | 0.00 | 0.00 | 0.00 | 76 | 1007.1 |
| 20260506010911 | 27 | 135 | 3.2 | 6.4 | 0.00 | 0.00 | 0.00 | 76 | 1007.1 |
| 20260506005912 | 27 | 138 | 1.6 | 4.8 | 0.00 | 0.00 | 0.00 | 75 | 1007.1 |
| 20260506005418 | 28 | 147 | 3.2 | 6.4 | 0.00 | 0.00 | 0.00 | 75 | 1007.1 |
| 20260506005412 | 28 | 138 | 1.6 | 6.4 | 0.00 | 0.00 | 0.00 | 75 | 1007.0 |
| 20260506004411 | 28 | 125 | 3.2 | 6.4 | 0.00 | 0.00 | 0.00 | 75 | 1007.0 |
| 20260506003912 | 28 | 125 | 1.6 | 6.4 | 0.00 | 0.00 | 0.00 | 75 | 1007.0 |
| 20260506003411 | 28 | 134 | 3.2 | 6.4 | 0.00 | 0.00 | 0.00 | 74 | 1007.0 |
| 20260506002912 | 28 | 140 | 1.6 | 6.4 | 0.00 | 0.00 | 0.00 | 74 | 1006.9 |
| 20260506002413 | 28 | 140 | 1.6 | 6.4 | 0.00 | 0.00 | 0.00 | 74 | 1006.9 |
| 20260506001912 | 28 | 147 | 3.2 | 4.8 | 0.00 | 0.00 | 0.00 | 74 | 1006.9 |
| 20260506001411 | 28 | 133 | 1.6 | 4.8 | 0.00 | 0.00 | 0.00 | 73 | 1006.9 |
| 20260506000912 | 28 | 140 | 3.2 | 8.0 | 0.00 | 0.00 | 0.00 | 73 | 1006.8 |
| 20260506000410 | 28 | 151 | 3.2 | 8.0 | 0.00 | 0.00 | 0.00 | 73 | 1006.7 |
| 20260505235917 | 28 | 130 | 3.2 | 8.0 | 0.00 | 0.00 | 0.00 | 73 | 1006.7 |
| 20260505235913 | 28 | 152 | 3.2 | 8.0 | 0.00 | 0.00 | 0.00 | 73 | 1006.7 |
| 20260505234910 | 28 | 116 | 4.8 | 8.0 | 0.00 | 0.00 | 0.00 | 72 | 1006.7 |
| 20260505234411 | 28 | 147 | 3.2 | 9.7 | 0.00 | 0.00 | 0.00 | 72 | 1006.7 |
| 20260505233910 | 28 | 127 | 4.8 | 9.7 | 0.00 | 0.00 | 0.00 | 71 | 1006.6 |
| 20260505233411 | 28 | 141 | 4.8 | 11.3 | 0.00 | 0.00 | 0.00 | 72 | 1006.5 |
| 20260505232909 | 28 | 141 | 3.2 | 11.3 | 0.00 | 0.00 | 0.00 | 71 | 1006.5 |
| 20260505232411 | 28 | 117 | 6.4 | 9.7 | 0.00 | 0.00 | 0.00 | 71 | 1006.6 |
| 20260505231909 | 28 | 128 | 3.2 | 8.0 | 0.00 | 0.00 | 0.00 | 71 | 1006.7 |
| 20260505231410 | 28 | 140 | 3.2 | 6.4 | 0.00 | 0.00 | 0.00 | 72 | 1006.7 |
| 20260505230909 | 28 | 147 | 1.6 | 8.0 | 0.00 | 0.00 | 0.00 | 72 | 1006.6 |
| 20260505230409 | 28 | 135 | 3.2 | 8.0 | 0.00 | 0.00 | 0.00 | 71 | 1006.5 |
| 20260505225910 | 28 | 154 | 4.8 | 9.7 | 0.00 | 0.00 | 0.00 | 71 | 1006.5 |
| 20260505225409 | 28 | 145 | 4.8 | 9.7 | 0.00 | 0.00 | 0.00 | 71 | 1006.3 |
| 20260505224913 | 28 | 147 | 4.8 | 9.7 | 0.00 | 0.00 | 0.00 | 70 | 1006.3 |
| 20260505224909 | 28 | 154 | 1.6 | 9.7 | 0.00 | 0.00 | 0.00 | 70 | 1006.5 |
| 20260505223915 | 28 | 142 | 6.4 | 11.3 | 0.00 | 0.00 | 0.00 | 70 | 1006.2 |
| 20260505223910 | 28 | 141 | 4.8 | 11.3 | 0.00 | 0.00 | 0.00 | 70 | 1006.2 |
| 20260505222910 | 29 | 130 | 4.8 | 11.3 | 0.00 | 0.00 | 0.00 | 70 | 1006.3 |
| 20260505222409 | 29 | 141 | 1.6 | 9.7 | 0.00 | 0.00 | 0.00 | 70 | 1006.2 |
| 20260505221908 | 29 | 165 | 4.8 | 11.3 | 0.00 | 0.00 | 0.00 | 69 | 1006.3 |
| 20260505221408 | 29 | 148 | 6.4 | 11.3 | 0.00 | 0.00 | 0.00 | 70 | 1006.3 |
| 20260505220908 | 29 | 158 | 4.8 | 11.3 | 0.00 | 0.00 | 0.00 | 69 | 1006.3 |
| 20260505220407 | 29 | 130 | 6.4 | 11.3 | 0.00 | 0.00 | 0.00 | 69 | 1006.3 |
| 20260505215909 | 29 | 142 | 4.8 | 9.7 | 0.00 | 0.00 | 0.00 | 69 | 1006.3 |
| 20260505215413 | 29 | 138 | 4.8 | 9.7 | 0.00 | 0.00 | 0.00 | 67 | 1006.9 |
| 20260505215409 | 29 | 124 | 1.6 | 9.7 | 0.00 | 0.00 | 0.00 | 68 | 1006.6 |
| 20260505214409 | 29 | 149 | 1.6 | 17.7 | 0.00 | 0.00 | 0.00 | 67 | 1006.9 |
| 20260505213913 | 30 | 164 | 4.8 | 14.5 | 0.00 | 0.00 | 0.00 | 67 | 1006.9 |
| 20260505213907 | 29 | 117 | 6.4 | 17.7 | 0.00 | 0.00 | 0.00 | 66 | 1006.8 |
| 20260505212907 | 30 | 157 | 4.8 | 16.1 | 0.00 | 0.00 | 0.00 | 67 | 1007.1 |
| 20260505212409 | 29 | 142 | 6.4 | 16.1 | 0.00 | 0.00 | 0.00 | 68 | 1007.0 |
| 20260505211915 | 29 | 147 | 4.8 | 9.7 | 0.00 | 0.00 | 0.00 | 68 | 1007.1 |
| 20260505211908 | 29 | 140 | 3.2 | 16.1 | 0.00 | 0.00 | 0.00 | 69 | 1007.0 |
| 20260505211409 | 29 | 149 | 8.0 | 16.1 | 0.00 | 0.00 | 0.00 | 68 | 1007.1 |
| 20260505210407 | 29 | 147 | 4.8 | 9.7 | 0.00 | 0.00 | 0.00 | 69 | 1007.1 |
| 20260505205907 | 28 | 169 | 4.8 | 11.3 | 0.00 | 0.00 | 0.00 | 71 | 1007.2 |
| 20260505205407 | 28 | 159 | 4.8 | 11.3 | 0.00 | 0.00 | 0.00 | 70 | 1007.2 |
| 20260505204906 | 28 | 154 | 8.0 | 14.5 | 0.00 | 0.00 | 0.00 | 71 | 1007.3 |
| 20260505204414 | 28 | 168 | 8.0 | 16.1 | 0.00 | 0.00 | 0.00 | 72 | 1007.5 |
| 20260505204408 | 28 | 123 | 6.4 | 14.5 | 0.00 | 0.00 | 0.00 | 71 | 1007.4 |
| 20260505203407 | 28 | 147 | 8.0 | 16.1 | 0.00 | 0.00 | 0.00 | 72 | 1007.7 |
| 20260505202912 | 28 | 158 | 1.6 | 11.3 | 0.00 | 0.00 | 0.00 | 73 | 1007.9 |
| 20260505202907 | 28 | 157 | 4.8 | 14.5 | 0.00 | 0.00 | 0.00 | 72 | 1007.8 |
| 20260505201912 | 28 | 144 | 4.8 | 9.7 | 0.00 | 0.00 | 0.00 | 73 | 1008.1 |
| 20260505201906 | 28 | 149 | 6.4 | 11.3 | 0.00 | 0.00 | 0.00 | 72 | 1008.0 |
| 20260505200905 | 28 | 152 | 3.2 | 11.3 | 0.00 | 0.00 | 0.00 | 73 | 1008.1 |
| 20260505200405 | 27 | 154 | 1.6 | 11.3 | 0.00 | 0.00 | 0.00 | 74 | 1008.2 |
| 20260505195906 | 27 | 217 | 6.4 | 9.7 | 0.00 | 0.00 | 0.00 | 73 | 1008.2 |
| 20260505195410 | 27 | 140 | 6.4 | 11.3 | 0.00 | 0.00 | 0.00 | 74 | 1008.3 |
| 20260505195405 | 27 | 152 | 6.4 | 11.3 | 0.00 | 0.00 | 0.00 | 74 | 1008.3 |
| 20260505194406 | 27 | 118 | 6.4 | 11.3 | 0.00 | 0.00 | 0.00 | 74 | 1008.3 |
| 20260505193905 | 27 | 151 | 0.0 | 11.3 | 0.00 | 0.00 | 0.00 | 75 | 1008.4 |
| 20260505193409 | 27 | 131 | 4.8 | 11.3 | 0.00 | 0.00 | 0.00 | 75 | 1008.5 |
| 20260505193405 | 27 | 138 | 6.4 | 11.3 | 0.00 | 0.00 | 0.00 | 74 | 1008.5 |
| 20260505192405 | 27 | 134 | 6.4 | 14.5 | 0.00 | 0.00 | 0.00 | 74 | 1008.6 |
| 20260505191904 | 27 | 121 | 4.8 | 14.5 | 0.00 | 0.00 | 0.00 | 75 | 1008.5 |
| 20260505191404 | 27 | 166 | 4.8 | 14.5 | 0.00 | 0.00 | 0.00 | 75 | 1008.6 |
| 20260505190909 | 27 | 149 | 1.6 | 9.7 | 0.00 | 0.00 | 0.00 | 75 | 1008.6 |
| 20260505190905 | 27 | 158 | 3.2 | 11.3 | 0.00 | 0.00 | 0.00 | 74 | 1008.5 |
| 20260505185905 | 27 | 131 | 3.2 | 9.7 | 0.00 | 0.00 | 0.00 | 75 | 1008.6 |
| 20260505185405 | 27 | 144 | 3.2 | 9.7 | 0.00 | 0.00 | 0.00 | 76 | 1008.8 |
| 20260505184904 | 27 | 144 | 1.6 | 11.3 | 0.00 | 0.00 | 0.00 | 77 | 1008.9 |
| 20260505184404 | 26 | 140 | 4.8 | 11.3 | 0.00 | 0.00 | 0.00 | 78 | 1008.8 |
| 20260505183904 | 26 | 149 | 1.6 | 9.7 | 0.00 | 0.00 | 0.00 | 79 | 1009.0 |
| 20260505183403 | 26 | 137 | 1.6 | 9.7 | 0.00 | 0.00 | 0.00 | 79 | 1009.1 |
| 20260505182910 | 25 | 149 | 1.6 | 6.4 | 0.00 | 0.00 | 0.00 | 80 | 1009.2 |
| 20260505182903 | 26 | 145 | 1.6 | 6.4 | 0.00 | 0.00 | 0.00 | 80 | 1009.1 |
| 20260505182403 | 25 | 148 | 1.6 | 6.4 | 0.00 | 0.00 | 0.00 | 80 | 1009.3 |
| 20260505181403 | 25 | 147 | 3.2 | 6.4 | 0.00 | 0.00 | 0.00 | 81 | 1009.2 |
| 20260505180905 | 25 | 141 | 3.2 | 6.4 | 0.00 | 0.00 | 0.00 | 81 | 1009.2 |
| 20260505180403 | 25 | 131 | 1.6 | 6.4 | 0.00 | 0.00 | 0.00 | 82 | 1009.3 |
| 20260505175908 | 25 | 141 | 3.2 | 8.0 | 0.00 | 0.00 | 0.00 | 81 | 1009.5 |
| 20260505175904 | 25 | 144 | 0.0 | 8.0 | 0.00 | 0.00 | 0.00 | 82 | 1009.4 |
| 20260505174902 | 25 | 154 | 3.2 | 6.4 | 0.00 | 0.00 | 0.00 | 82 | 1009.5 |
| 20260505174403 | 25 | 161 | 0.0 | 8.0 | 0.00 | 0.00 | 0.00 | 82 | 1009.7 |
| 20260505173904 | 25 | 141 | 3.2 | 8.0 | 0.00 | 0.00 | 0.00 | 82 | 1009.6 |
| 20260505173403 | 25 | 135 | 0.0 | 6.4 | 0.00 | 0.00 | 0.00 | 82 | 1009.7 |
| 20260505172903 | 24 | 135 | 0.0 | 4.8 | 0.00 | 0.00 | 0.00 | 83 | 1009.7 |
| 20260505172403 | 24 | 155 | 1.6 | 3.2 | 0.00 | 0.00 | 0.00 | 83 | 1009.7 |
| 20260505171902 | 24 | 133 | 1.6 | 9.7 | 0.00 | 0.00 | 0.00 | 83 | 1009.6 |
| 20260505171402 | 24 | 168 | 3.2 | 9.7 | 0.00 | 0.00 | 0.00 | 83 | 1009.8 |
| 20260505170902 | 23 | 133 | 3.2 | 9.7 | 0.00 | 0.00 | 0.00 | 83 | 1009.8 |
| 20260505170402 | 23 | 147 | 4.8 | 9.7 | 0.00 | 0.00 | 0.00 | 83 | 1009.7 |
| 20260505165902 | 23 | 155 | 3.2 | 9.7 | 0.00 | 0.00 | 0.00 | 84 | 1009.8 |
| 20260505165407 | 23 | 155 | 0.0 | 8.0 | 0.00 | 0.00 | 0.00 | 84 | 1009.9 |
| 20260505165403 | 23 | 135 | 3.2 | 6.4 | 0.00 | 0.00 | 0.00 | 84 | 1009.8 |
| 20260505164407 | 23 | 147 | 3.2 | 8.0 | 0.00 | 0.00 | 0.00 | 84 | 1009.8 |
| 20260505164401 | 23 | 152 | 0.0 | 8.0 | 0.00 | 0.00 | 0.00 | 84 | 1009.8 |
| 20260505164018 | 23 | 149 | 4.8 | 8.0 | 0.00 | 0.00 | 0.00 | 84 | 1009.7 |
| 20260505162907 | 23 | 147 | 3.2 | 8.0 | 0.00 | 0.00 | 0.00 | 85 | 1009.8 |
| 20260505162902 | 23 | 144 | 3.2 | 8.0 | 0.00 | 0.00 | 0.00 | 85 | 1009.8 |
| 20260505161902 | 22 | 162 | 3.2 | 8.0 | 0.00 | 0.00 | 0.00 | 85 | 1009.8 |
| 20260505161403 | 22 | 151 | 3.2 | 9.7 | 0.00 | 0.00 | 0.00 | 84 | 1009.8 |
| 20260505160901 | 22 | 144 | 1.6 | 9.7 | 0.00 | 0.00 | 0.00 | 84 | 1009.9 |
| 20260505160407 | 22 | 147 | 1.6 | 6.4 | 0.00 | 0.00 | 0.00 | 84 | 1009.8 |
| 20260505160402 | 22 | 151 | 1.6 | 9.7 | 0.00 | 0.00 | 0.00 | 84 | 1009.8 |
| 20260505152900 | 22 | 123 | 3.2 | 9.7 | 0.00 | 0.00 | 0.00 | 83 | 1010.0 |
| 20260505152401 | 22 | 134 | 1.6 | 9.7 | 0.00 | 0.00 | 0.00 | 83 | 1009.9 |
| 20260505151902 | 22 | 148 | 3.2 | 6.4 | 0.00 | 0.00 | 0.00 | 83 | 1009.9 |
| 20260505151401 | 22 | 148 | 3.2 | 8.0 | 0.00 | 0.00 | 0.00 | 83 | 1009.9 |
| 20260505150859 | 22 | 124 | 1.6 | 8.0 | 0.00 | 0.00 | 0.00 | 83 | 1009.7 |
| 20260505150359 | 22 | 203 | 1.6 | 8.0 | 0.00 | 0.00 | 0.00 | 83 | 1009.6 |
| 20260505140358 | 22 | 125 | 3.2 | 9.7 | 0.00 | 0.00 | 0.00 | 83 | 1009.5 |
| 20260505124857 | 21 | 131 | 1.6 | 11.3 | 0.00 | 0.00 | 0.00 | 81 | 1008.6 |
| 20260505123857 | 21 | 128 | 6.4 | 11.3 | 0.00 | 0.00 | 0.00 | 81 | 1008.6 |
| 20260505123356 | 21 | 147 | 6.4 | 11.3 | 0.00 | 0.00 | 0.00 | 81 | 1008.5 |
| 20260505122856 | 21 | 130 | 3.2 | 9.7 | 0.00 | 0.00 | 0.00 | 81 | 1008.6 |
| 20260505122356 | 21 | 142 | 4.8 | 9.7 | 0.00 | 0.00 | 0.00 | 81 | 1008.5 |
| 20260505121858 | 21 | 157 | 3.2 | 11.3 | 0.00 | 0.00 | 0.00 | 82 | 1008.4 |
| 20260505121356 | 21 | 272 | 1.6 | 11.3 | 0.00 | 0.00 | 0.00 | 82 | 1008.3 |
| 20260505120856 | 21 | 161 | 3.2 | 9.7 | 0.00 | 0.00 | 0.00 | 82 | 1008.3 |
| 20260505120356 | 21 | 137 | 4.8 | 9.7 | 0.00 | 0.00 | 0.00 | 82 | 1008.3 |
| 20260505115901 | 21 | 161 | 3.2 | 9.7 | 0.00 | 0.00 | 0.00 | 83 | 1008.1 |
| 20260505115857 | 21 | 157 | 4.8 | 9.7 | 0.00 | 0.00 | 0.00 | 83 | 1008.2 |
| 20260505114855 | 21 | 140 | 3.2 | 11.3 | 0.00 | 0.00 | 0.00 | 83 | 1008.2 |
| 20260505114356 | 21 | 159 | 6.4 | 11.3 | 0.00 | 0.00 | 0.00 | 83 | 1008.2 |
| 20260505113856 | 21 | 152 | 3.2 | 11.3 | 0.00 | 0.00 | 0.00 | 83 | 1008.2 |
| 20260505113355 | 21 | 171 | 6.4 | 11.3 | 0.00 | 0.00 | 0.00 | 83 | 1008.0 |
| 20260505112858 | 21 | 164 | 6.4 | 11.3 | 0.00 | 0.00 | 0.00 | 83 | 1008.0 |
| 20260505112854 | 21 | 135 | 3.2 | 9.7 | 0.00 | 0.00 | 0.00 | 83 | 1008.2 |
| 20260505112516 | 21 | 203 | 3.2 | 11.3 | 0.00 | 0.00 | 0.00 | 83 | 1008.1 |
| 20260505111356 | 21 | 145 | 3.2 | 11.3 | 0.00 | 0.00 | 0.00 | 83 | 1008.0 |
| 20260505110859 | 21 | 135 | 3.2 | 17.7 | 0.00 | 0.00 | 0.00 | 83 | 1008.4 |
| 20260505110854 | 21 | 159 | 4.8 | 11.3 | 0.00 | 0.00 | 0.00 | 83 | 1008.3 |